PBO Station Position Time Series. Reference Frame : NAM14
Format Version,1.1.0
4-character ID,PLCX
Station name,plcxREGNOMmx2016
Begin Date, 2018-09-09
End Date, 2019-10-07
Release Date, 2019-10-08
Reference position, 31.2552155837 North Latitude, -116.1580747479 East Longitude, 182.97704 meters elevation,
Date, North (mm), East (mm), Vertical (mm), North Std. Deviation (mm), East Std. Deviation (mm),              Vertical Std. Deviation (mm), Quality,
2018-09-09,0.00, 0.00, 6.38, 5.29, 3.43, 37.74, repro,
2018-09-10,-0.21, -0.91, 2.34, 5.33, 2.86, 29.15, repro,
2018-09-11,-0.43, 0.39, 1.07, 11.54, 5.67, 56.12, repro,
2018-09-12,-0.78, 0.45, -1.72, 14.22, 6.31, 70.64, repro,
2018-09-13,-0.22, 0.51, -3.32, 3.14, 3.18, 22.06, repro,
2018-09-14,-0.13, -1.06, -1.53, 4.17, 2.72, 25.37, repro,
2018-09-15,-0.53, 0.54, -3.27, 3.70, 2.38, 20.44, repro,
2018-09-16,-0.23, 0.09, -7.08, 11.59, 6.78, 78.13, repro,
2018-09-17,-1.09, -0.09, -3.60, 11.00, 4.95, 53.73, repro,
2018-09-18,-0.96, 1.01, 0.13, 18.28, 7.02, 71.59, repro,
2018-09-19,-2.59, 0.15, 8.49, 7.92, 2.99, 26.70, repro,
2018-09-20,-1.09, 1.00, -2.82, 12.31, 5.65, 55.52, repro,
2018-09-21,1.39, 0.71, 2.36, 19.82, 6.13, 117.94, repro,
2018-09-22,0.04, 0.39, -4.85, 11.21, 3.48, 60.21, repro,
2018-09-23,0.62, -0.47, -3.61, 4.43, 3.39, 38.19, repro,
2018-09-24,-0.42, -0.27, -3.30, 5.42, 3.25, 44.60, repro,
2018-09-25,-0.11, -0.07, -6.05, 6.62, 3.95, 77.84, repro,
2018-09-26,0.14, -0.41, -3.03, 5.38, 3.24, 44.29, repro,
2018-09-27,0.28, -0.37, 0.78, 5.38, 3.24, 44.28, repro,
2018-09-28,0.09, 0.49, -2.64, 4.80, 3.14, 37.81, repro,
2018-09-29,-0.08, -0.72, -0.37, 6.63, 3.95, 77.78, repro,
2018-09-30,2.19, -0.39, -4.81, 4.88, 4.11, 40.04, repro,
2018-10-01,0.21, -0.18, -2.12, 4.19, 4.06, 35.13, repro,
2018-10-02,0.20, 0.38, -5.21, 4.27, 4.12, 35.17, repro,
2018-10-03,-0.23, -0.30, -7.32, 7.80, 3.96, 45.16, repro,
2018-10-04,-0.94, 0.69, -1.38, 5.05, 3.94, 30.66, repro,
2018-10-05,-0.01, -0.41, -3.48, 5.30, 3.41, 37.71, repro,
2018-10-06,-0.48, 0.05, 0.00, 3.17, 2.55, 17.63, repro,
2018-10-07,-0.39, 0.60, 0.75, 5.23, 3.52, 29.83, repro,
2018-10-08,0.56, -0.02, -3.45, 3.48, 2.48, 18.31, repro,
2018-10-09,-93.23, 7369.89, 2.15, 10000.00, 10000.00, 10000.00, repro,
2018-10-10,-0.81, -0.64, 1.48, 5.54, 3.59, 40.23, repro,
2018-10-11,-0.81, -0.52, 2.94, 5.41, 3.49, 38.36, repro,
2018-10-12,1.24, -0.84, 4.46, 5.13, 4.26, 41.70, repro,
2018-10-13,0.39, 0.40, 3.15, 5.43, 3.52, 38.91, repro,
2018-10-14,0.90, 0.51, -3.81, 5.34, 3.35, 44.63, repro,
2018-10-15,0.09, 0.87, -4.65, 6.17, 3.24, 42.72, repro,
2018-10-16,0.80, 2.15, -5.44, 4.92, 3.23, 38.96, repro,
2018-10-17,1.05, 0.41, -7.21, 3.39, 4.35, 42.37, repro,
2018-10-18,-0.26, 0.01, -4.44, 2.24, 9.18, 43.74, repro,
2018-10-19,-0.46, -0.10, -2.47, 2.22, 9.20, 43.73, repro,
2018-10-20,0.90, 0.65, -4.05, 3.51, 12.22, 49.77, repro,
2018-10-21,0.22, 0.38, 1.52, 3.21, 2.28, 17.47, repro,
2018-10-22,-0.28, -0.69, -3.68, 3.26, 2.34, 17.72, repro,
2018-10-23,0.32, 0.15, -0.32, 3.18, 2.27, 16.66, repro,
2018-10-24,-0.43, 0.78, -4.20, 3.25, 2.24, 17.39, repro,
2018-10-25,0.23, 0.94, -2.23, 3.17, 2.57, 17.61, repro,
2018-10-26,0.72, 1.20, 2.30, 5.02, 3.52, 29.35, repro,
2018-10-27,0.06, -0.30, -0.41, 4.86, 4.09, 38.85, repro,
2018-10-28,-0.09, 0.51, 1.07, 6.26, 6.94, 49.86, repro,
2018-10-29,-0.10, 1.18, -2.86, 5.27, 5.66, 37.49, repro,
2018-10-30,0.92, 0.11, -0.22, 6.28, 7.00, 52.32, repro,
2018-10-31,1.70, -0.16, -2.80, 6.26, 6.98, 50.58, repro,
2018-11-01,2.33, 0.89, -2.44, 6.19, 6.90, 49.74, repro,
2018-11-02,1.20, 0.39, 5.77, 3.74, 7.95, 46.58, repro,
2018-11-03,1.21, 1.13, 6.34, 4.11, 6.53, 44.73, repro,
2018-11-04,0.72, 0.83, 3.71, 3.05, 2.25, 16.86, repro,
2018-11-05,0.30, -0.09, 5.78, 3.12, 2.24, 16.10, repro,
2018-11-06,0.75, 1.41, -2.34, 3.04, 2.57, 19.04, repro,
2018-11-07,-0.10, -0.34, 0.09, 3.07, 2.25, 16.89, repro,
2018-11-08,-0.08, 0.15, 1.56, 3.73, 2.33, 20.47, repro,
2018-11-09,0.66, 0.50, 1.09, 3.34, 2.55, 17.76, repro,
2018-11-10,0.62, 0.51, -1.55, 7.07, 2.72, 22.18, repro,
2018-11-11,0.42, -0.16, -4.32, 15.24, 8.22, 95.46, repro,
2018-11-12,0.62, -0.66, -5.14, 19.79, 9.13, 108.72, repro,
2018-11-13,0.33, 0.60, 2.20, 6.87, 2.69, 21.86, repro,
2018-11-14,1.14, 0.17, -2.99, 6.70, 2.66, 22.64, repro,
2018-11-15,0.94, 0.24, -2.78, 14.81, 7.92, 91.80, repro,
2018-11-16,-0.06, -0.30, 4.54, 19.45, 9.08, 108.21, repro,
2018-11-17,0.45, 1.10, 1.42, 13.45, 6.75, 78.20, repro,
2018-11-18,0.58, 0.57, 2.52, 19.99, 9.28, 110.60, repro,
2018-11-19,-1.11, 2.29, 26.07, 24.41, 16.84, 221.06, repro,
2018-11-20,0.20, 1.42, 6.88, 19.97, 9.26, 110.26, repro,
2018-11-21,0.65, 0.61, 4.22, 19.87, 9.23, 109.93, repro,
2018-11-22,0.91, 0.14, 9.77, 24.37, 16.79, 220.56, repro,
2018-11-23,1.66, 0.15, 2.96, 19.98, 9.25, 110.16, repro,
2018-11-24,0.21, 1.02, -2.54, 15.47, 8.26, 95.53, repro,
2018-11-25,0.18, 0.31, -4.20, 16.69, 15.81, 193.77, repro,
2018-11-26,1.28, -0.16, -3.30, 11.52, 7.40, 86.75, repro,
2018-11-27,2.13, -2.79, -20.24, 24.51, 16.93, 222.43, repro,
2018-11-28,1.36, 0.07, 2.58, 11.00, 6.72, 77.35, repro,
2018-11-29,0.67, -0.14, -4.05, 7.19, 4.02, 43.68, repro,
2018-11-30,2.38, -0.98, 4.14, 8.87, 10.44, 139.66, repro,
2018-12-01,0.33, 0.97, 13.70, 16.71, 15.83, 194.09, repro,
2018-12-02,0.42, 0.48, 7.33, 12.44, 8.24, 82.65, repro,
2018-12-03,1.19, 0.57, 1.74, 12.26, 8.15, 81.82, repro,
2018-12-04,1.79, -0.10, 0.94, 9.91, 6.45, 65.12, repro,
2018-12-05,-0.25, 0.45, 0.84, 14.02, 6.45, 60.10, repro,
2018-12-06,-0.94, 0.33, 4.11, 12.39, 8.22, 82.37, repro,
2018-12-07,0.61, 0.77, -0.06, 12.79, 8.52, 85.17, repro,
2018-12-08,0.13, 1.26, -3.44, 12.30, 8.19, 81.67, repro,
2018-12-09,0.15, 0.09, -2.54, 11.94, 5.42, 50.96, repro,
2018-12-10,1.65, 0.05, -2.00, 12.88, 8.46, 84.94, repro,
2018-12-11,0.87, -0.69, -5.26, 12.36, 8.16, 81.73, repro,
2018-12-12,2.10, -0.36, -1.56, 12.22, 8.11, 81.45, repro,
2018-12-13,1.07, -0.21, 0.92, 12.47, 8.58, 85.67, repro,
2018-12-14,1.50, -0.61, -2.61, 12.61, 8.70, 86.69, repro,
2018-12-15,0.67, -0.85, 6.65, 9.73, 6.39, 64.25, repro,
2018-12-16,0.35, 0.31, -1.45, 10.63, 4.56, 49.30, repro,
2018-12-17,0.42, -0.33, 3.05, 23.83, 12.41, 138.43, repro,
2018-12-18,0.54, -0.25, -0.03, 10.04, 5.69, 52.84, repro,
2018-12-19,1.65, 0.81, -2.30, 13.46, 6.16, 57.88, repro,
2018-12-20,-0.05, 0.80, 2.71, 8.20, 5.37, 53.88, repro,
2018-12-21,0.58, 0.53, 9.68, 23.70, 17.88, 235.33, repro,
2018-12-22,0.84, 0.38, 0.44, 23.64, 12.31, 137.28, repro,
2018-12-23,1.13, 0.49, -3.34, 15.29, 6.47, 87.16, repro,
2018-12-24,-0.17, 1.01, 5.01, 14.77, 5.67, 69.37, repro,
2018-12-25,-0.41, 1.02, 6.29, 8.48, 4.87, 60.98, repro,
2018-12-26,-0.80, -0.82, 7.15, 9.67, 6.86, 83.35, repro,
2018-12-27,0.38, -0.00, 1.79, 9.03, 5.12, 59.97, repro,
2018-12-28,0.58, 0.13, 0.77, 9.56, 6.66, 80.42, repro,
2018-12-29,0.11, 0.01, -0.74, 14.91, 4.88, 47.21, repro,
2018-12-30,0.97, -0.69, 3.20, 7.88, 5.89, 67.87, repro,
2018-12-31,-0.56, 0.54, 3.33, 9.34, 5.65, 74.08, repro,
2019-01-01,0.90, -1.19, -1.58, 6.68, 4.35, 44.25, repro,
2019-01-02,2.88, 0.49, -5.25, 6.72, 4.35, 44.34, repro,
2019-01-03,1.19, 0.94, 4.33, 14.85, 9.30, 57.36, repro,
2019-01-04,0.83, 0.56, 0.18, 7.14, 4.16, 39.61, repro,
2019-01-05,0.19, -0.08, 4.66, 7.23, 5.88, 89.50, repro,
2019-01-06,-0.92, -0.79, 3.59, 9.22, 5.56, 72.87, repro,
2019-01-07,-0.04, -0.81, -2.11, 7.51, 5.90, 89.03, repro,
2019-01-08,0.47, 0.37, -2.26, 7.63, 5.19, 67.68, repro,
2019-01-09,0.39, 0.76, 0.23, 9.17, 6.44, 37.96, repro,
2019-01-10,0.59, -0.11, -3.88, 14.28, 9.41, 60.58, repro,
2019-01-11,1.74, -0.86, -0.12, 13.73, 9.39, 61.80, repro,
2019-01-12,0.06, 2.22, 5.09, 7.20, 4.20, 40.15, repro,
2019-01-13,1.01, 0.24, -4.97, 7.17, 5.40, 43.87, repro,
2019-01-14,0.89, -0.43, -1.87, 8.66, 5.59, 41.76, repro,
2019-01-15,1.89, 1.22, -3.69, 7.11, 5.38, 43.75, repro,
2019-01-16,0.53, 0.48, -11.43, 4.95, 4.21, 26.20, repro,
2019-01-17,1.23, 0.60, -4.58, 7.81, 6.10, 51.81, repro,
2019-01-18,-0.01, 0.45, -7.50, 4.77, 4.19, 26.40, repro,
2019-01-19,2.16, 0.30, -7.15, 7.26, 5.49, 44.52, repro,
2019-01-20,0.90, 1.25, -4.43, 7.45, 5.67, 45.38, repro,
2019-01-21,0.42, 0.19, 4.51, 9.18, 7.66, 83.49, repro,
2019-01-22,0.38, 0.25, -3.67, 7.44, 5.65, 45.37, repro,
2019-01-23,1.97, 0.02, 1.80, 7.32, 5.56, 45.33, repro,
2019-01-24,0.99, 0.19, 0.47, 8.83, 5.74, 42.91, repro,
2019-01-25,0.02, 0.37, 0.98, 10.19, 12.00, 129.34, repro,
2019-01-26,0.50, 0.43, 0.02, 12.07, 12.52, 124.09, repro,
2019-01-27,-0.42, 1.39, -4.51, 10.21, 5.69, 53.21, supp6,
2019-01-28,1.16, 1.10, -0.73, 14.78, 5.08, 54.10, supp6,
2019-01-29,-0.31, 1.61, 1.96, 13.11, 4.61, 53.22, supp6,
2019-01-30,-0.43, 0.27, -3.34, 10.76, 9.15, 109.63, supp6,
2019-01-31,-1.09, 0.28, -5.26, 12.62, 6.23, 65.15, supp6,
2019-02-01,-1.56, 1.31, 0.13, 12.13, 6.03, 63.79, supp6,
2019-02-02,-0.27, 0.79, 5.60, 11.01, 5.44, 62.39, supp6,
2019-02-03,-0.23, -0.34, 12.45, 9.53, 7.70, 84.70, sup6f,
2019-02-04,-0.59, 0.98, 2.77, 10.33, 4.86, 55.61, sup6f,
2019-02-05,-1.26, -0.11, -1.81, 12.29, 6.09, 64.46, sup6f,
2019-02-06,0.44, -1.08, 4.17, 13.39, 4.57, 49.26, sup6f,
2019-02-07,-0.23, 1.21, 3.44, 14.91, 9.35, 57.53, sup6f,
2019-02-08,0.26, 0.77, 3.44, 8.42, 4.68, 58.53, sup6f,
2019-02-09,-0.95, 0.52, -5.31, 8.28, 4.32, 44.33, sup6f,
2019-02-10,-0.57, 0.06, -1.64, 4.42, 3.56, 25.58, suppf,
2019-02-11,-0.03, -0.04, 3.16, 7.04, 5.41, 31.80, suppf,
2019-02-12,-0.19, 0.27, 4.50, 5.35, 3.87, 28.59, suppf,
2019-02-13,0.29, 2.03, 6.35, 5.34, 4.37, 41.91, suppf,
2019-02-14,-1.09, 0.25, 11.59, 5.31, 5.92, 68.35, suppf,
2019-02-15,0.54, 0.80, 5.76, 5.24, 5.78, 64.37, suppf,
2019-02-16,0.41, 1.94, 5.35, 7.20, 5.43, 44.35, suppf,
2019-02-24,-0.01, 1.31, -0.44, 1.77, 1.57, 6.97, suppf,
2019-02-25,-0.60, 1.21, 1.34, 1.76, 1.58, 7.02, suppf,
2019-02-26,-2.10, 0.65, -2.69, 1.80, 1.64, 7.14, suppf,
2019-02-27,-0.82, 0.99, 2.43, 1.77, 1.59, 7.07, suppf,
2019-02-28,-0.50, 1.91, 3.40, 1.77, 1.59, 7.04, suppf,
2019-03-01,0.47, 0.93, -2.78, 1.82, 1.60, 7.14, suppf,
2019-03-02,-1.21, 0.57, 3.38, 1.77, 1.58, 6.98, suppf,
2019-03-03,-0.20, 0.37, -6.81, 1.76, 1.58, 6.98, suppf,
2019-03-04,-1.28, 0.84, -0.72, 1.77, 1.59, 7.04, suppf,
2019-03-05,-1.29, -0.39, -4.37, 1.78, 1.59, 7.04, suppf,
2019-03-06,-2.49, 0.66, 4.47, 1.78, 1.59, 7.03, suppf,
2019-03-07,-1.06, 0.98, -5.82, 1.77, 1.59, 7.01, suppf,
2019-03-08,-0.71, 1.00, -0.96, 1.76, 1.57, 6.92, suppf,
2019-03-09,-1.11, 0.41, -4.90, 1.77, 1.57, 6.98, suppf,
2019-03-10,-0.83, 0.56, -2.38, 1.77, 1.57, 6.97, suppf,
2019-03-11,-1.23, 0.67, -5.73, 1.78, 1.59, 7.03, suppf,
2019-03-12,0.57, -0.13, -5.92, 1.77, 1.58, 7.00, suppf,
2019-03-13,0.20, -0.15, -0.06, 1.77, 1.58, 6.99, suppf,
2019-03-14,-0.44, 0.76, -5.08, 1.75, 1.57, 6.95, suppf,
2019-03-15,-0.14, -0.16, -8.36, 1.80, 1.62, 7.15, suppf,
2019-03-16,-0.38, 0.51, -10.58, 1.78, 1.58, 7.05, suppf,
2019-03-17,-0.62, 0.20, -8.84, 1.77, 1.57, 6.98, suppf,
2019-03-18,0.02, -0.16, -6.86, 1.77, 1.58, 7.01, suppf,
2019-03-19,-0.09, 0.11, -9.31, 1.77, 1.58, 7.03, suppf,
2019-03-20,-1.32, 1.38, -11.60, 1.77, 1.58, 7.03, suppf,
2019-03-21,-0.57, -0.45, -16.14, 1.77, 1.57, 7.00, suppf,
2019-03-22,0.35, 1.48, -8.80, 1.83, 1.61, 7.31, suppf,
2019-03-23,-0.72, 0.95, -8.53, 1.78, 1.57, 6.98, suppf,
2019-03-24,-0.27, 0.84, -9.58, 1.77, 1.58, 6.99, suppf,
2019-03-25,-0.79, 1.00, -11.36, 1.77, 1.58, 7.01, suppf,
2019-03-26,-0.73, 0.94, -10.39, 1.78, 1.58, 7.04, suppf,
2019-03-27,-0.28, 1.46, -10.90, 1.78, 1.57, 6.97, suppf,
2019-03-28,-0.72, 0.59, -7.30, 1.78, 1.56, 6.94, suppf,
2019-03-29,0.10, 0.78, -13.82, 1.77, 1.56, 6.93, suppf,
2019-03-30,-0.62, -0.20, -13.51, 1.81, 1.64, 7.10, suppf,
2019-03-31,-0.19, 0.96, -9.89, 1.82, 1.59, 7.18, suppf,
2019-04-01,-0.70, 1.01, -2.97, 1.82, 1.59, 7.20, suppf,
2019-04-02,-0.30, 0.68, 3.30, 1.78, 1.57, 6.98, suppf,
2019-04-03,-0.55, -0.02, -12.39, 1.79, 1.60, 7.12, suppf,
2019-04-04,-0.77, 0.81, -10.75, 1.77, 1.56, 6.98, suppf,
2019-04-05,-1.71, 0.72, -1.54, 1.77, 1.58, 7.02, suppf,
2019-04-06,-1.79, 0.44, -5.33, 1.77, 1.58, 7.01, suppf,
2019-04-07,-0.60, 1.37, -7.00, 1.81, 1.60, 7.12, repro,
2019-04-08,-1.24, 0.10, 3.85, 1.77, 1.57, 7.00, repro,
2019-04-09,-0.49, -0.46, 1.46, 1.82, 1.59, 7.22, repro,
2019-04-10,-2.21, 0.48, -0.71, 1.83, 1.66, 7.39, repro,
2019-04-11,-1.06, 1.13, 0.55, 1.80, 1.61, 7.14, repro,
2019-04-12,-0.74, -0.23, -2.73, 1.80, 1.57, 7.13, repro,
2019-04-13,0.06, 0.16, -3.83, 1.77, 1.57, 7.00, repro,
2019-04-14,-0.68, 0.72, -7.95, 1.78, 1.57, 7.03, repro,
2019-04-15,-0.08, 0.50, -2.14, 1.78, 1.57, 7.04, repro,
2019-04-16,-2.04, -0.41, 3.53, 1.78, 1.57, 6.99, repro,
2019-04-17,-0.94, 0.55, -5.96, 1.79, 1.57, 7.02, repro,
2019-04-18,-0.78, 0.53, -9.27, 1.77, 1.57, 6.95, repro,
2019-04-19,-1.24, -0.19, 3.51, 1.82, 1.59, 7.17, repro,
2019-04-20,-1.72, 0.15, -2.54, 1.77, 1.58, 7.03, repro,
2019-04-21,-1.66, 0.68, 5.05, 1.82, 1.63, 7.15, repro,
2019-04-22,-0.71, 0.16, -2.75, 1.77, 1.57, 6.98, repro,
2019-04-23,-0.93, -0.33, -6.39, 1.77, 1.56, 6.97, repro,
2019-04-24,-0.39, 1.47, -5.53, 1.80, 1.61, 7.09, repro,
2019-04-25,-1.43, 0.45, -9.23, 1.79, 1.62, 7.13, repro,
2019-04-26,-1.64, 0.71, -6.56, 1.78, 1.58, 7.06, repro,
2019-04-27,-1.28, -0.17, -1.64, 1.77, 1.58, 7.05, repro,
2019-04-28,-1.20, 0.74, -3.19, 1.78, 1.57, 7.01, repro,
2019-04-29,-0.53, 0.09, 3.43, 1.79, 1.57, 7.02, repro,
2019-04-30,-1.13, 0.12, -2.13, 1.77, 1.58, 7.00, repro,
2019-05-01,-1.71, 0.71, -0.63, 1.76, 1.58, 7.03, repro,
2019-05-02,-0.75, 0.26, -1.12, 1.79, 1.63, 7.10, repro,
2019-05-03,-2.20, 0.15, -8.65, 1.79, 1.63, 7.08, repro,
2019-05-04,-2.36, -0.78, -0.08, 1.78, 1.57, 7.03, repro,
2019-05-05,-1.23, -0.35, -8.42, 1.77, 1.58, 7.02, suppf,
2019-05-06,-1.34, -1.25, 4.45, 1.76, 1.57, 6.99, suppf,
2019-05-07,-1.67, 0.47, -3.64, 1.84, 1.65, 7.20, suppf,
2019-05-08,-1.10, 0.62, -3.70, 1.81, 1.60, 7.09, suppf,
2019-05-09,-0.91, -0.34, 5.32, 1.78, 1.58, 7.05, suppf,
2019-05-10,-1.30, -0.32, -10.78, 1.78, 1.57, 7.01, suppf,
2019-05-11,-0.14, -0.02, -1.64, 1.78, 1.58, 7.07, suppf,
2019-05-12,-1.79, -1.17, -13.17, 1.80, 1.62, 7.17, suppf,
2019-05-13,-1.44, -0.13, 9.04, 1.76, 1.57, 6.99, suppf,
2019-05-14,-2.48, 0.28, 5.02, 1.78, 1.57, 7.04, suppf,
2019-05-15,-1.52, 0.24, 5.86, 1.78, 1.56, 7.01, suppf,
2019-05-16,-2.18, -2.57, 3.43, 1.77, 1.56, 6.97, suppf,
2019-05-17,-0.39, -0.22, 4.10, 1.76, 1.56, 6.95, suppf,
2019-05-18,-1.79, -0.68, 5.44, 1.79, 1.62, 7.12, suppf,
2019-05-19,-2.12, -1.46, 0.84, 1.81, 1.67, 7.27, suppf,
2019-05-20,-1.67, -0.76, 6.03, 1.78, 1.58, 7.08, suppf,
2019-05-21,-0.88, -0.45, 6.48, 1.79, 1.60, 7.10, suppf,
2019-05-22,-2.54, 0.40, 8.25, 1.80, 1.62, 7.13, suppf,
2019-05-23,-0.43, -0.62, -2.00, 1.77, 1.57, 7.00, suppf,
2019-05-24,-0.50, 1.03, 1.86, 1.77, 1.57, 7.02, suppf,
2019-05-25,-1.01, 0.35, 4.59, 1.77, 1.56, 7.00, suppf,
2019-05-26,-1.36, 0.93, 5.33, 1.77, 1.55, 6.95, suppf,
2019-05-27,-0.47, 0.02, 4.37, 1.76, 1.56, 6.99, repro,
2019-05-28,-0.06, 0.61, 2.22, 1.82, 1.66, 7.35, suppf,
2019-05-29,-0.29, 1.17, 6.68, 1.76, 1.57, 7.03, suppf,
2019-05-30,-0.45, 0.18, 2.74, 1.77, 1.57, 7.03, suppf,
2019-05-31,-0.89, 0.69, 2.82, 1.80, 1.58, 7.07, suppf,
2019-06-01,-1.41, 0.23, 7.30, 1.78, 1.56, 7.06, suppf,
2019-06-02,-0.50, 0.96, 6.05, 1.77, 1.57, 7.04, final,
2019-06-03,-0.26, -0.10, 8.59, 1.78, 1.58, 7.10, final,
2019-06-04,-0.11, 0.57, -0.48, 1.79, 1.58, 7.13, final,
2019-06-05,-1.57, 1.05, 6.84, 1.77, 1.57, 7.01, final,
2019-06-06,-0.88, 2.05, 6.84, 1.80, 1.61, 7.18, final,
2019-06-07,-1.35, 1.35, 9.76, 1.78, 1.56, 7.04, final,
2019-06-08,-0.07, -0.51, 4.14, 1.81, 1.62, 7.20, final,
2019-06-09,-1.20, 0.15, 2.32, 1.79, 1.58, 7.11, final,
2019-06-10,-0.42, 0.60, -2.50, 1.81, 1.59, 7.09, final,
2019-06-11,-0.44, 1.02, 0.03, 1.81, 1.59, 7.10, final,
2019-06-12,-0.77, 1.49, 2.84, 1.83, 1.62, 7.18, final,
2019-06-13,-0.33, 1.91, 1.22, 1.80, 1.59, 7.09, final,
2019-06-14,0.25, 0.40, 1.88, 1.83, 1.60, 7.14, final,
2019-06-15,-1.35, 0.82, 1.62, 1.82, 1.59, 7.13, final,
2019-06-16,-1.24, 1.58, 2.10, 1.82, 1.60, 7.18, suppf,
2019-06-17,-0.29, 0.23, 4.25, 1.84, 1.64, 7.27, suppf,
2019-06-18,0.29, 0.23, -0.81, 1.81, 1.59, 7.12, suppf,
2019-06-19,0.79, 0.06, 0.95, 1.89, 1.66, 7.39, suppf,
2019-06-20,-0.77, 0.32, 6.26, 1.90, 1.66, 7.41, suppf,
2019-06-21,-0.38, 0.04, 18.45, 2.30, 2.05, 9.46, suppf,
2019-06-22,0.29, -0.47, 8.87, 1.81, 1.59, 7.14, suppf,
2019-06-23,-1.36, 1.30, 14.93, 1.79, 1.59, 7.11, suppf,
2019-06-24,-0.58, 0.54, 2.23, 1.80, 1.59, 7.11, suppf,
2019-06-25,-0.77, 0.96, 12.23, 1.82, 1.60, 7.19, suppf,
2019-06-26,-0.44, 0.76, 5.39, 1.82, 1.60, 7.21, suppf,
2019-06-27,-1.01, 0.21, 2.74, 1.80, 1.60, 7.13, suppf,
2019-06-28,-2.02, 0.58, 0.49, 1.80, 1.59, 7.10, suppf,
2019-06-29,-0.37, 1.25, 2.28, 1.76, 1.56, 7.01, suppf,
2019-06-30,-1.84, 1.75, 9.85, 1.76, 1.56, 7.03, suppf,
2019-07-01,-1.45, -0.08, 11.18, 1.78, 1.58, 7.13, suppf,
2019-07-02,-1.23, 0.56, -0.31, 1.77, 1.58, 7.09, suppf,
2019-07-03,-1.36, -0.36, -1.74, 1.76, 1.57, 7.04, suppf,
2019-07-04,-1.19, 0.49, 2.34, 1.77, 1.57, 7.06, suppf,
2019-07-05,-0.66, 1.73, -2.11, 1.76, 1.56, 7.02, suppf,
2019-07-06,-0.13, 1.14, 2.91, 1.78, 1.57, 7.07, suppf,
2019-07-07,0.89, -0.10, 4.30, 1.78, 1.58, 7.08, repro,
2019-07-08,0.51, -0.27, 4.64, 1.79, 1.58, 7.09, repro,
2019-07-09,0.54, 0.22, -1.53, 1.77, 1.58, 7.06, repro,
2019-07-10,0.36, 0.24, 2.18, 1.78, 1.59, 7.12, repro,
2019-07-11,0.35, 0.39, -0.19, 1.78, 1.58, 7.08, repro,
2019-07-12,0.17, -0.73, 2.29, 1.81, 1.62, 7.20, repro,
2019-07-13,1.35, 0.15, 0.08, 1.85, 1.65, 7.28, repro,
2019-07-14,-1.82, 0.01, 3.06, 1.81, 1.61, 7.20, final,
2019-07-15,1.10, 0.37, 5.90, 1.82, 1.61, 7.24, final,
2019-07-16,-0.08, -0.41, 2.54, 1.82, 1.60, 7.26, final,
2019-07-17,1.27, -0.19, 2.54, 1.81, 1.62, 7.26, final,
2019-07-18,1.34, 0.47, 6.18, 1.80, 1.62, 7.20, final,
2019-07-19,1.05, 0.03, 4.57, 1.86, 1.62, 7.30, final,
2019-07-20,-0.34, 0.22, -0.28, 1.77, 1.58, 7.10, final,
2019-07-21,1.41, 0.27, -4.92, 1.81, 1.60, 7.24, final,
2019-07-22,-0.41, -0.48, 6.64, 1.82, 1.67, 7.42, final,
2019-07-23,1.00, -0.11, 3.61, 1.80, 1.61, 7.17, final,
2019-07-24,-0.71, -0.47, 2.40, 1.85, 1.72, 7.51, final,
2019-07-25,0.24, 0.11, 2.40, 1.77, 1.59, 7.13, final,
2019-07-26,1.42, 0.02, 0.78, 1.84, 1.68, 7.41, final,
2019-07-27,-0.74, 0.46, 5.13, 1.81, 1.60, 7.24, final,
2019-07-28,0.34, 0.70, 1.39, 1.76, 1.57, 7.05, final,
2019-07-29,0.60, 0.54, 10.23, 1.82, 1.60, 7.31, final,
2019-07-30,1.34, -0.30, -0.01, 1.77, 1.57, 7.08, final,
2019-07-31,0.97, 0.10, -3.64, 1.80, 1.63, 7.26, final,
2019-08-01,-0.71, 0.47, 1.79, 1.81, 1.60, 7.23, final,
2019-08-02,0.94, -0.05, 6.31, 1.80, 1.62, 7.18, final,
2019-08-03,-0.79, 0.74, 7.20, 1.76, 1.57, 7.00, final,
2019-08-04,0.08, 0.61, 6.94, 1.77, 1.58, 7.09, final,
2019-08-05,1.19, 0.61, 1.45, 1.83, 1.59, 7.29, final,
2019-08-06,-1.45, 0.97, 9.71, 1.80, 1.62, 7.28, final,
2019-08-07,-0.18, -0.28, 5.58, 1.85, 1.61, 7.39, final,
2019-08-08,-0.34, -0.48, 1.08, 1.84, 1.63, 7.35, final,
2019-08-09,0.05, -0.60, -0.46, 1.77, 1.58, 7.06, final,
2019-08-10,-0.00, -0.40, 5.66, 1.86, 1.64, 7.33, final,
2019-08-11,-0.09, 0.13, 5.44, 1.85, 1.62, 7.28, final,
2019-08-12,-0.09, -0.15, -1.55, 1.76, 1.57, 7.04, final,
2019-08-13,-0.66, -0.04, 6.34, 1.79, 1.59, 7.10, final,
2019-08-14,-0.29, 0.81, 1.53, 1.76, 1.58, 7.09, final,
2019-08-15,0.41, 0.99, 5.32, 1.77, 1.59, 7.11, final,
2019-08-16,-1.31, 0.72, 13.97, 1.79, 1.61, 7.20, final,
2019-08-17,0.42, -0.16, 5.30, 1.76, 1.58, 7.09, final,
2019-08-18,-0.97, -0.02, 6.21, 1.76, 1.57, 7.05, final,
2019-08-19,0.27, -0.45, 7.96, 1.76, 1.58, 7.10, final,
2019-08-20,-1.54, 0.92, 5.45, 1.77, 1.58, 7.11, final,
2019-08-21,-0.12, -0.06, 7.17, 1.77, 1.57, 7.08, final,
2019-08-22,-0.07, -0.79, 5.64, 1.76, 1.57, 7.05, final,
2019-08-23,0.02, 0.45, 7.05, 1.80, 1.60, 7.14, final,
2019-08-24,0.41, -1.05, 6.28, 1.76, 1.57, 7.09, final,
2019-08-25,0.68, -0.08, -2.03, 1.77, 1.57, 7.09, final,
2019-08-26,-2.62, -0.28, 5.30, 1.81, 1.59, 7.22, final,
2019-08-27,-0.99, 0.67, 5.95, 1.78, 1.58, 7.13, final,
2019-08-28,-1.41, -0.47, 5.77, 1.80, 1.59, 7.12, final,
2019-08-29,-1.23, -0.14, 1.78, 1.83, 1.59, 7.33, final,
2019-08-30,-0.56, 0.47, 2.11, 1.83, 1.59, 7.36, final,
2019-08-31,-1.42, -1.22, -0.32, 1.77, 1.56, 7.09, final,
2019-09-01,0.01, -1.25, 4.75, 1.81, 1.63, 7.29, final,
2019-09-02,0.68, -0.63, 9.27, 1.79, 1.61, 7.30, final,
2019-09-03,0.03, -0.41, -2.85, 1.78, 1.63, 7.22, final,
2019-09-04,-0.75, -1.48, 1.48, 1.80, 1.60, 7.27, final,
2019-09-05,0.39, 1.91, 5.43, 1.80, 1.65, 7.33, final,
2019-09-06,-1.03, -0.69, -0.36, 1.79, 1.63, 7.22, final,
2019-09-07,-1.09, 0.52, 3.15, 1.82, 1.67, 7.34, final,
2019-09-08,0.41, -0.96, 9.36, 1.76, 1.57, 7.04, final,
2019-09-09,-1.32, -0.07, 5.86, 1.79, 1.61, 7.20, final,
2019-09-10,-1.45, -0.51, 5.09, 1.79, 1.62, 7.24, final,
2019-09-11,-0.32, 0.24, 3.33, 1.76, 1.58, 7.12, final,
2019-09-12,-0.32, -0.39, -1.61, 1.76, 1.57, 7.07, final,
2019-09-13,-0.69, -0.03, -1.54, 1.76, 1.58, 7.07, final,
2019-09-14,-0.36, -0.03, 0.71, 1.77, 1.58, 7.12, final,
2019-09-15,-0.29, 0.81, 10.43, 1.76, 1.58, 7.08, final,
2019-09-16,-0.64, -1.43, 1.07, 1.79, 1.63, 7.28, final,
2019-09-17,0.07, -1.46, 5.65, 1.76, 1.58, 7.07, final,
2019-09-18,-1.81, 1.27, 8.13, 1.77, 1.58, 7.10, final,
2019-09-19,-0.12, -0.37, 5.10, 1.77, 1.58, 7.10, final,
2019-09-20,-0.36, 0.11, 5.16, 1.86, 1.62, 7.40, final,
2019-09-21,-0.06, 1.33, 5.24, 1.86, 1.62, 7.39, final,
2019-09-22,-0.34, 0.43, 2.34, 2.86, 2.61, 12.23, rapid,
2019-09-23,-1.12, -0.25, 1.30, 2.85, 2.61, 12.19, rapid,
2019-09-24,1.46, 1.08, 2.17, 2.89, 2.62, 12.35, rapid,
2019-09-25,-0.58, 0.83, 7.62, 2.91, 2.66, 12.52, rapid,
2019-09-26,0.11, 0.68, 9.48, 2.88, 2.65, 12.41, rapid,
2019-09-27,0.40, 0.08, 8.42, 2.84, 2.61, 12.16, rapid,
2019-09-28,-0.83, -0.51, 7.63, 2.83, 2.59, 12.10, rapid,
2019-09-29,-1.01, -0.53, 2.48, 2.86, 2.61, 12.21, rapid,
2019-09-30,-0.16, -0.72, 6.15, 2.84, 2.61, 12.20, rapid,
2019-10-01,-0.66, 0.44, 5.86, 2.84, 2.61, 12.17, rapid,
2019-10-02,0.01, 0.45, 1.20, 2.89, 2.66, 12.30, rapid,
2019-10-03,0.08, 0.59, -0.97, 2.93, 2.62, 12.44, rapid,
2019-10-04,-0.54, -0.62, -2.63, 2.90, 2.65, 12.29, rapid,
2019-10-05,0.02, 0.03, 1.73, 2.86, 2.62, 12.23, rapid,
2019-10-06,1.10, 0.90, 5.01, 2.84, 2.60, 12.11, rapid,
2019-10-07,1.22, 0.06, 3.36, 2.86, 2.62, 12.21, rapid,
